EW3148 Weather Reports


time (UTC)temp
C
wind
direction
speed
KPH
gust
KPH
rain 1hr
cm
rain 24hr
cm
rain mn
cm
humidity
%
barometer
mb
20260503210146 26 211 6.4 22.5 0.00 0.00 0.00 35 1017.2
20260503205200 26 141 6.4 22.5 0.00 0.00 0.00 33 1017.6
20260503202952 26 174 6.4 20.9 0.00 0.00 0.00 34 1017.9
20260503202000 26 161 6.4 22.5 0.00 0.00 0.00 34 1018.2
20260503200948 26 153 8.0 22.5 0.00 0.00 0.00 35 1018.1
20260503195928 26 118 6.4 25.7 0.00 0.00 0.00 33 1018.3
20260503194854 26 202 9.7 25.7 0.00 0.00 0.00 35 1018.6
20260503193917 26 203 6.4 19.3 0.00 0.00 0.00 33 1018.6
20260503192845 26 187 8.0 19.3 0.00 0.00 0.00 31 1018.8
20260503191825 26 134 6.4 22.5 0.00 0.00 0.00 31 1018.9
20260503190758 26 208 6.4 22.5 0.00 0.00 0.00 31 1018.9
20260503185751 26 218 4.8 19.3 0.00 0.00 0.00 35 1019.1
20260503184716 26 226 3.2 20.9 0.00 0.00 0.00 37 1019.3
20260503182620 25 142 6.4 17.7 0.00 0.00 0.00 36 1019.6
20260503181558 26 280 4.8 11.3 0.00 0.00 0.00 36 1019.8
20260503180529 26 145 4.8 16.1 0.00 0.00 0.00 33 1019.9
20260503174342 25 177 6.4 19.3 0.00 0.00 0.00 36 1020.5
20260503173352 25 190 4.8 19.3 0.00 0.00 0.00 37 1020.6
20260503172402 25 144 6.4 24.1 0.00 0.00 0.00 37 1020.7
20260503170220 24 212 6.4 20.9 0.00 0.00 0.00 41 1021.0
20260503081528 15 200 0.0 0.0 0.00 0.03 0.00 70 1019.8
20260503080531 15 200 0.0 4.8 0.00 0.03 0.00 69 1019.9
20260503072459 13 165 0.0 0.0 0.00 0.03 0.00 73 1020.1
20260503071447 13 165 0.0 0.0 0.00 0.03 0.00 73 1020.3
20260503070433 13 165 0.0 0.0 0.00 0.03 0.00 72 1020.2
20260503054543 15 161 0.0 0.0 0.00 0.03 0.00 67 1020.4
20260503053604 15 161 0.0 0.0 0.00 0.03 0.00 67 1020.5
20260503052542 16 161 0.0 0.0 0.00 0.03 0.00 66 1020.5
20260503051559 16 161 0.0 3.2 0.00 0.03 0.00 62 1020.5
20260503050533 16 163 0.0 3.2 0.00 0.03 0.00 63 1020.5
20260503045526 16 184 0.0 3.2 0.00 0.03 0.03 63 1020.6
20260503044526 16 184 0.0 3.2 0.00 0.03 0.03 63 1020.5
20260503043529 16 179 1.6 3.2 0.00 0.03 0.03 63 1020.5
20260503042510 16 154 0.0 1.6 0.00 0.03 0.03 63 1020.5
20260503040336 17 154 0.0 1.6 0.00 0.03 0.03 60 1020.2
20260503035354 17 154 0.0 0.0 0.00 0.03 0.03 60 1020.3
20260503034325 17 154 0.0 0.0 0.00 0.03 0.03 60 1020.3
20260503033316 17 140 0.0 1.6 0.00 0.03 0.03 58 1020.2
20260503032307 17 140 0.0 3.2 0.00 0.03 0.03 58 1020.1
20260503031245 17 140 1.6 3.2 0.00 0.03 0.03 58 1019.9
20260503030224 17 141 1.6 3.2 0.00 0.03 0.03 59 1019.9
20260503025150 17 119 0.0 3.2 0.00 0.03 0.03 59 1019.8
20260503022956 17 116 0.0 3.2 0.00 0.03 0.03 60 1019.6
20260503021941 17 111 0.0 3.2 0.00 0.03 0.03 60 1019.4
20260503020929 17 113 1.6 4.8 0.00 0.03 0.03 59 1019.2
20260503015859 18 86 0.0 4.8 0.00 0.03 0.03 59 1019.0
20260503014830 18 94 0.0 3.2 0.00 0.03 0.03 58 1019.0
20260503013816 18 93 0.0 3.2 0.00 0.03 0.03 58 1019.0
20260503012739 19 82 0.0 3.2 0.00 0.03 0.03 57 1019.0
20260503011746 20 82 0.0 1.6 0.00 0.03 0.03 55 1019.0
20260503010740 20 82 0.0 0.0 0.00 0.03 0.03 54 1018.8
20260503005721 21 82 0.0 1.6 0.00 0.03 0.03 50 1018.8
20260503004742 21 82 0.0 0.0 0.00 0.03 0.03 49 1018.9
20260503003717 21 65 1.6 6.4 0.00 0.03 0.03 46 1018.8
20260503002723 22 77 1.6 6.4 0.00 0.03 0.03 45 1018.7
20260503001653 22 48 1.6 12.9 0.00 0.03 0.03 44 1018.7
20260503000649 22 51 1.6 12.9 0.00 0.03 0.03 42 1018.7
20260502235654 23 66 1.6 9.7 0.00 0.03 0.03 42 1018.7
20260502234640 23 36 1.6 12.9 0.00 0.03 0.03 42 1018.6
20260502233610 23 52 3.2 12.9 0.00 0.03 0.03 42 1018.6
20260502232625 23 43 3.2 11.3 0.00 0.03 0.03 42 1018.6
20260502230408 23 55 4.8 14.5 0.00 0.03 0.03 42 1018.5
20260502225333 23 96 4.8 16.1 0.00 0.03 0.03 39 1018.5
20260502224258 23 49 4.8 16.1 0.00 0.05 0.03 38 1018.5
20260502214911 23 95 3.2 17.7 0.00 0.10 0.03 39 1018.7
20260502212758 23 41 4.8 17.7 0.00 0.18 0.03 42 1019.0
20260502211726 23 65 4.8 16.1 0.00 0.20 0.03 40 1019.2